When you browse on this site, cookies collect data to enhance your experience and personalize the content and advertising you see.
Visit our Privacy Policy to learn more. By continuing to use the site, you agree to this use of cookies and data.
  • En España
  • Lista de países
  • Para 7 días
  • Temperatura del agua
  • Mapa Satelital
  • El tiempo en el mapa
  • Informadores
  • user-avatar
    Iniciar sesión

    Tiempo cada hora Manzini

    Hoy, 17 Diciembre, Lunes

    Tiempo Temperatura Precipitaciones Viento Presión Humedad
    00:00 +20°C° 0 mm 0 mps 708 mmHg 93%
    01:00 +20°C° 0 mm 0 mps 708 mmHg 94%
    02:00 +20°C° 0 mm 0 mps 708 mmHg 96%
    03:00 +22°C° 0 mm 1 mps 708 mmHg 95%
    04:00 +22°C° 0 mm 1 mps 708 mmHg 94%
    05:00 +22°C° 0 mm 1 mps 708 mmHg 92%
    06:00 +24°C° 0 mm 1 mps 708 mmHg 86%
    07:00 +25°C° 0 mm 1 mps 708 mmHg 79%
    08:00 +27°C° 0 mm 1 mps 708 mmHg 72%
    09:00 +30°C° 0 mm 1 mps 708 mmHg 61%
    10:00 +33°C° 0 mm 1 mps 708 mmHg 49%
    11:00 +36°C° 0 mm 1 mps 708 mmHg 38%
    12:00 +38°C° 0 mm 2 mps 707 mmHg 36%
    13:00 +38°C° 0 mm 2 mps 706 mmHg 33%
    14:00 +39°C° 0 mm 3 mps 706 mmHg 30%
    15:00 +38°C° 0 mm 3 mps 705 mmHg 32%
    16:00 +37°C° 0 mm 3 mps 705 mmHg 35%
    17:00 +36°C° 0 mm 3 mps 704 mmHg 37%
    18:00 +33°C° 0 mm 3 mps 704 mmHg 47%
    19:00 +29°C° 0 mm 2 mps 705 mmHg 56%
    20:00 +26°C° 0 mm 1 mps 705 mmHg 66%
    21:00 +25°C° 0.2 mm 1 mps 705 mmHg 72%
    22:00 +24°C° 0.2 mm 1 mps 706 mmHg 77%
    23:00 +23°C° 0.2 mm 1 mps 706 mmHg 83%

    Mañana, 18 Diciembre, Martes

    Tiempo Temperatura Precipitaciones Viento Presión Humedad
    00:00 +23°C° 0.1 mm 1 mps 706 mmHg 83%
    01:00 +23°C° 0.1 mm 1 mps 705 mmHg 84%
    02:00 +23°C° 0.1 mm 1 mps 705 mmHg 85%
    03:00 +23°C° 0 mm 1 mps 705 mmHg 84%
    04:00 +23°C° 0 mm 1 mps 705 mmHg 84%
    05:00 +23°C° 0 mm 1 mps 705 mmHg 83%
    06:00 +25°C° 0 mm 1 mps 705 mmHg 74%
    07:00 +28°C° 0 mm 1 mps 705 mmHg 65%
    08:00 +30°C° 0 mm 1 mps 706 mmHg 56%
    09:00 +33°C° 0 mm 1 mps 706 mmHg 47%
    10:00 +36°C° 0 mm 2 mps 705 mmHg 39%
    11:00 +39°C° 0 mm 2 mps 705 mmHg 31%
    12:00 +39°C° 0.1 mm 2 mps 704 mmHg 32%
    13:00 +38°C° 0.1 mm 2 mps 704 mmHg 32%
    14:00 +38°C° 0.1 mm 2 mps 703 mmHg 33%
    15:00 +36°C° 0.8 mm 2 mps 702 mmHg 40%
    16:00 +34°C° 0.8 mm 3 mps 702 mmHg 48%
    17:00 +31°C° 0.8 mm 3 mps 701 mmHg 56%
    18:00 +30°C° 0 mm 2 mps 702 mmHg 60%
    19:00 +28°C° 0 mm 2 mps 702 mmHg 64%
    20:00 +27°C° 0 mm 1 mps 703 mmHg 68%
    21:00 +26°C° 0.1 mm 1 mps 703 mmHg 72%
    22:00 +26°C° 0.1 mm 1 mps 704 mmHg 75%
    23:00 +25°C° 0.1 mm 1 mps 704 mmHg 79%

    Pasado mañana, 19 Diciembre, Miércoles

    Tiempo Temperatura Precipitaciones Viento Presión Humedad
    00:00 +24°C° 0 mm 1 mps 703 mmHg 81%
    01:00 +24°C° 0 mm 1 mps 703 mmHg 82%
    02:00 +23°C° 0 mm 1 mps 703 mmHg 84%
    03:00 +23°C° 0.2 mm 1 mps 702 mmHg 84%
    04:00 +23°C° 0.2 mm 1 mps 702 mmHg 84%
    05:00 +23°C° 0.2 mm 1 mps 702 mmHg 84%
    06:00 +25°C° 0.1 mm 1 mps 703 mmHg 74%
    07:00 +28°C° 0.1 mm 1 mps 703 mmHg 65%
    08:00 +30°C° 0.1 mm 1 mps 703 mmHg 55%
    09:00 +33°C° 0 mm 1 mps 703 mmHg 47%
    10:00 +36°C° 0 mm 1 mps 704 mmHg 38%
    11:00 +40°C° 0 mm 1 mps 704 mmHg 30%
    12:00 +39°C° 0 mm 2 mps 703 mmHg 31%
    13:00 +39°C° 0 mm 2 mps 702 mmHg 32%
    14:00 +38°C° 0 mm 3 mps 701 mmHg 34%
    15:00 +37°C° 0.5 mm 3 mps 701 mmHg 40%
    16:00 +35°C° 0.5 mm 3 mps 701 mmHg 47%
    17:00 +32°C° 0.5 mm 2 mps 701 mmHg 54%
    18:00 +30°C° 1.4 mm 2 mps 701 mmHg 65%
    19:00 +28°C° 1.4 mm 2 mps 702 mmHg 76%
    20:00 +26°C° 1.4 mm 2 mps 703 mmHg 87%
    21:00 +25°C° 0.4 mm 2 mps 703 mmHg 89%
    22:00 +25°C° 0.4 mm 2 mps 704 mmHg 92%
    23:00 +24°C° 0.4 mm 1 mps 705 mmHg 94%

    20 Diciembre, Jueves

    Tiempo Temperatura Precipitaciones Viento Presión Humedad
    00:00 +24°C° 0.2 mm 1 mps 704 mmHg 94%
    01:00 +24°C° 0.2 mm 2 mps 704 mmHg 94%
    02:00 +23°C° 0.2 mm 2 mps 704 mmHg 95%
    03:00 +23°C° 0.4 mm 2 mps 704 mmHg 95%
    04:00 +23°C° 0.4 mm 2 mps 704 mmHg 96%
    05:00 +23°C° 0.4 mm 1 mps 705 mmHg 96%
    06:00 +23°C° 0.3 mm 1 mps 705 mmHg 94%
    07:00 +23°C° 0.3 mm 1 mps 705 mmHg 93%
    08:00 +23°C° 0.3 mm 1 mps 706 mmHg 91%
    09:00 +23°C° 0.1 mm 2 mps 706 mmHg 87%
    10:00 +24°C° 0.1 mm 2 mps 706 mmHg 83%
    11:00 +25°C° 0.1 mm 2 mps 706 mmHg 80%
    12:00 +25°C° 0.2 mm 2 mps 706 mmHg 77%
    13:00 +25°C° 0.2 mm 2 mps 705 mmHg 75%
    14:00 +26°C° 0.2 mm 2 mps 705 mmHg 73%
    15:00 +25°C° 0.7 mm 2 mps 705 mmHg 76%
    16:00 +25°C° 0.7 mm 2 mps 705 mmHg 79%
    17:00 +24°C° 0.7 mm 2 mps 705 mmHg 82%
    18:00 +23°C° 0.4 mm 2 mps 706 mmHg 85%
    19:00 +23°C° 0.4 mm 2 mps 706 mmHg 88%
    20:00 +22°C° 0.4 mm 1 mps 707 mmHg 90%
    21:00 +21°C° 0.1 mm 1 mps 707 mmHg 91%
    22:00 +21°C° 0.1 mm 1 mps 708 mmHg 92%
    23:00 +21°C° 0.1 mm 1 mps 708 mmHg 92%

    21 Diciembre, Viernes

    Tiempo Temperatura Precipitaciones Viento Presión Humedad
    00:00 +20°C° 0.1 mm 1 mps 707 mmHg 93%
    01:00 +20°C° 0.1 mm 1 mps 707 mmHg 93%
    02:00 +20°C° 0.1 mm 1 mps 707 mmHg 93%
    03:00 +20°C° 0 mm 1 mps 707 mmHg 93%
    04:00 +20°C° 0 mm 1 mps 707 mmHg 93%
    05:00 +19°C° 0 mm 1 mps 708 mmHg 93%
    06:00 +20°C° 0 mm 1 mps 708 mmHg 87%
    07:00 +21°C° 0 mm 1 mps 709 mmHg 81%
    08:00 +22°C° 0 mm 1 mps 709 mmHg 75%
    09:00 +24°C° 0 mm 1 mps 709 mmHg 67%
    10:00 +26°C° 0 mm 2 mps 708 mmHg 59%
    11:00 +28°C° 0 mm 2 mps 708 mmHg 50%
    12:00 +29°C° 0 mm 2 mps 708 mmHg 49%
    13:00 +29°C° 0 mm 2 mps 707 mmHg 48%
    14:00 +30°C° 0 mm 2 mps 706 mmHg 47%
    15:00 +29°C° 0 mm 2 mps 706 mmHg 50%
    16:00 +29°C° 0 mm 3 mps 706 mmHg 52%
    17:00 +28°C° 0 mm 3 mps 705 mmHg 55%
    18:00 +26°C° 0.1 mm 3 mps 706 mmHg 63%
    19:00 +24°C° 0.1 mm 3 mps 706 mmHg 71%
    20:00 +22°C° 0.1 mm 3 mps 706 mmHg 80%
    21:00 +21°C° 0.1 mm 2 mps 706 mmHg 83%
    22:00 +21°C° 0.1 mm 1 mps 707 mmHg 87%
    23:00 +21°C° 0.1 mm 1 mps 707 mmHg 91%

    22 Diciembre, Sábado

    Tiempo Temperatura Precipitaciones Viento Presión Humedad
    00:00 +21°C° 0.1 mm 1 mps 707 mmHg 92%
    01:00 +21°C° 0.1 mm 1 mps 706 mmHg 93%
    02:00 +20°C° 0.1 mm 1 mps 706 mmHg 94%
    03:00 +20°C° 0.1 mm 1 mps 706 mmHg 94%
    04:00 +20°C° 0.1 mm 1 mps 706 mmHg 95%
    05:00 +18°C° 0.1 mm 0 mps 706 mmHg 95%
    06:00 +21°C° 0.1 mm 1 mps 707 mmHg 93%
    07:00 +21°C° 0.1 mm 1 mps 707 mmHg 91%
    08:00 +22°C° 0.1 mm 1 mps 707 mmHg 89%
    09:00 +23°C° 0.1 mm 1 mps 707 mmHg 84%
    10:00 +23°C° 0.1 mm 1 mps 707 mmHg 79%
    11:00 +24°C° 0.1 mm 1 mps 706 mmHg 75%
    12:00 +25°C° 0 mm 1 mps 706 mmHg 70%
    13:00 +27°C° 0 mm 2 mps 705 mmHg 66%
    14:00 +28°C° 0 mm 2 mps 705 mmHg 61%
    15:00 +27°C° 0.1 mm 2 mps 705 mmHg 65%
    16:00 +26°C° 0.1 mm 2 mps 704 mmHg 68%
    17:00 +25°C° 0.1 mm 3 mps 704 mmHg 72%
    18:00 +24°C° 0.3 mm 2 mps 705 mmHg 78%
    19:00 +23°C° 0.3 mm 2 mps 705 mmHg 83%
    20:00 +21°C° 0.3 mm 2 mps 705 mmHg 89%
    21:00 +21°C° 0.2 mm 2 mps 706 mmHg 91%
    22:00 +20°C° 0.2 mm 2 mps 706 mmHg 93%
    23:00 +21°C° 0.2 mm 1 mps 706 mmHg 94%
    Mostrar más